Location: Bílinka
(49.3579°N, 14.3767°E)
Time: 01:35:00
(UTC+00:00)

Cosmos 1553 Rocket - Pass Details

Date: 28 January 2023
Orbit: 942 x 1007 km, 82.9° (Epoch: 31 March)

Event Time Altitude Azimuth Distance (km) Brightness Sun altitude
Rises 18:53:47 0° 194° (SSW) 3,593 7.1 -29.6°
Reaches altitude 10° 18:56:16 10° 196° (SSW) 2,654 6.4 -30.0°
Maximum altitude 19:02:19 73° 281° (W) 993 4.0 -30.9°
Drops below altitude 10° 19:08:28 10° 6° (N) 2,697 6.3 -31.9°
Sets 19:11:00 0° 9° (N) 3,655 7.0 -32.3°
